Location: Chippewa Lake
(41.0698°N, 81.9010°W)
Time: 23:34:21
(UTC+00:00)

Cosmos 2061 Rocket - Pass Details

Date: 09 May 2021
Orbit: 966 x 1012 km, 82.9° (Epoch: 24 June)

Event Time Altitude Azimuth Distance (km) Brightness Sun altitude
Rises 08:00:52 0° 351° (N) 3,699 7.6 -21.1°
Reaches altitude 10° 08:03:23 10° 351° (N) 2,753 6.9 -20.8°
Maximum altitude 08:09:42 82° 265° (W) 1,009 3.9 -20.0°
Enters shadow 08:14:13 21° 179° (S) 2,092 5.3 -19.4°
